Regional Weather Roundup
Issued by NWS

Home | Current Version | Previous Version | Graphics & Text | Print | Product List | Glossary On
Versions: 1 2 3 4 5 6 7 8 9 10 11 12 13 14 15 16 17 18 19 20 21 22 23 24 25 26 27
000
ASUS45 KPSR 231010
RWRAZ

ARIZONA HOURLY REGIONAL WEATHER ROUNDUP
NATIONAL WEATHER SERVICE PHOENIX AZ
300 AM MST SAT JUL 23 2016

NOTE: FAIR INDICATES FEW OR NO CLOUDS BELOW 12,000 FEET WITH NO
SIGNIFICANT WEATHER AND/OR OBSTRUCTIONS TO VISIBILITY.

AZZ001>003-036-231100-
NORTHWEST ARIZONA

CITY           SKY/WX    TMP DP  RH WIND       PRES   REMARKS
BULLHEAD CITY  PTCLDY    95  46  18 SE7       29.76S
KINGMAN        PTCLDY    81  47  30 SE8       30.01F
$$

AZZ004>008-015-016-018-231100-
NORTH CENTRAL ARIZONA

CITY           SKY/WX    TMP DP  RH WIND       PRES   REMARKS
GRAND CANYON   PTCLDY    57  53  86 CALM      30.31F
WILLIAMS       MOCLDY    59  52  77 S8        30.38F
PRESCOTT       CLOUDY    68  57  68 S7        30.17F
FLAGSTAFF      CLOUDY    61  52  72 CALM      30.32F
PAYSON         MOCLDY    73  46  38 CALM      30.17F
PAGE           MOCLDY    79  46  31 CALM      30.08F
$$

AZZ009>014-017-231100-
NORTHEAST ARIZONA

CITY           SKY/WX    TMP DP  RH WIND       PRES   REMARKS
WINSLOW        MOCLDY    67  52  58 NE5       30.16F
SAINT JOHNS    CLEAR     63  50  62 S6        30.23F
WINDOW ROCK    MOCLDY    61  56  83 CALM      30.30F
SHOW LOW       CLEAR     55  48  76 SE5       30.28F
$$

AZZ023-231100-
GREATER PHOENIX AREA

CITY           SKY/WX    TMP DP  RH WIND       PRES   REMARKS
PHOENIX        MOCLDY    93  56  28 SW5       29.79F
BUCKEYE        CLEAR     86  55  35 CALM      29.81F
LUKE AFB       PTCLDY    90  57  32 CALM      29.79F
DEER VALLEY    CLEAR     89  50  26 CALM      29.83S
SCOTTSDALE     PTCLDY    92  52  25 W5        29.83F
MESA-GATEWAY   CLEAR     91  54  27 NW6       29.83S
$$

AZZ027-028-231100-
SOUTHWEST MARICOPA COUNTY AND PINAL COUNTY

CITY           SKY/WX    TMP DP  RH WIND       PRES   REMARKS
CASA GRANDE    CLEAR     91  52  25 N8        29.86R
GILA BEND      FAIR      92  53  26 SW3       29.78S
$$

AZZ503-504-507>509-231100-
SOUTHEAST ARIZONA

CITY           SKY/WX    TMP DP  RH WIND       PRES   REMARKS
TUCSON         MOCLDY    89  57  33 S12       29.97S
DAVIS-MONTHAN  PTCLDY    87  58  37 SW13G23   29.96S
NOGALES        CLOUDY    73  62  68 S6        30.10F
SIERRA VISTA   MOCLDY    76  54  45 W14       30.13R
DOUGLAS        CLOUDY    73  59  61 E9        30.07S
SAFFORD        CLEAR     80  55  42 CALM      29.96S
$$

AZZ020-021-025-026-031-231100-
SOUTHWEST ARIZONA

CITY           SKY/WX    TMP DP  RH WIND       PRES   REMARKS
YUMA           CLEAR     92  57  30 SE9       29.73F
$$

CAZ031-033-041-043-047-048-061-231100-
SOUTHERN CALIFORNIA

CITY           SKY/WX    TMP DP  RH WIND       PRES   REMARKS
DOWNTOWN L.A.  CLOUDY    75  61  61 CALM      29.80S
L.A. AIRPORT   MOCLDY    73  60  63 E7        29.80S
SAN DIEGO      MOCLDY    69  68  96 SE8       29.83F
BURBANK        CLOUDY    80  56  43 E6        29.82R
ONTARIO        CLEAR     77  50  38 N5        29.83S
RIVERSIDE      CLEAR     79  52  38 CALM      29.82F
PALM SPRINGS   CLEAR     93  44  18 N7        29.78S
EL CENTRO NAS  CLEAR     83  63  50 N8        29.72S
IMPERIAL         N/A     87  70  56 E6        29.70S
BLYTHE         PTCLDY    95  51  22 S8        29.74F
NEEDLES        PTCLDY    96  44  16 W8        29.78S
$$

NVZ020-UTZ003-231100-
SOUTHERN NEVADA-UTAH

CITY           SKY/WX    TMP DP  RH WIND       PRES   REMARKS
LAS VEGAS      PTCLDY    92  24   8 S10       29.82S
SALT LAKE CITY PTCLDY    69  39  33 W6        30.09S
$$

NMZ009-TXZ055-231100-
NEW MEXICO-WEST TEXAS

CITY           SKY/WX    TMP DP  RH WIND       PRES   REMARKS
ALBUQUERQUE    PTCLDY    77  51  40 W3        30.17F
EL PASO        PTCLDY    83  47  28 VRB3      30.03F
$$


........................KEY........................
SKY/WX - SKY CONDITION/WEATHER
TMP    - TEMPERATURE IN FAHRENHEIT
DP     - DEW POINT IN FAHRENHEIT
RH     - RELATIVE HUMIDITY IN PERCENT
WIND   - DIRECTION AND SPEED IN MILES PER HOUR (MPH)
VRB    - VARIABLE WIND DIRECTION
PRES   - MEAN SEA LEVEL PRESSURE IN INCHES OF MERCURY
         F - FALLING PRESSURE   R - RISING PRESSURE
         S - STEADY PRESSURE
VSB    - VISIBILITY IN MILES
HX     - HEAT INDEX IN FAHRENHEIT
WCI    - WIND CHILL INDEX IN FAHRENHEIT
TC     - TEMPERATURE IN CELSIUS WHICH IS ALSO KNOWN AS
         TEMPERATURE IN CENTIGRADE
AFB    - AIR FORCE BASE
         LUKE AFB IS LUKE AIR FORCE BASE
         DAVIS-MONTHAN IS DAVIS-MONTHAN AIR FORCE BASE
NAS    - NAVAL AIR STATION
         EL CENTRO NAS IS EL CENTRO NAVAL AIR STATION
N/A    - NOT AVAILABLE





USA.gov is the U.S. government's official web portal to all federal, state and local government web resources and services.